Regional Weather Roundup
Issued by NWS

Home | Current Version | Previous Version | Graphics & Text | Print | Product List | Glossary On
Versions: 1 2 3 4 5 6 7 8 9 10 11 12 13 14 15 16 17 18 19 20 21 22 23 24 25 26 27 28 29 30 31 32 33 34 35 36 37 38 39 40 41 42 43 44 45 46 47 48 49 50
000
ASUS43 KTOP 300259
RWRKS

WEATHER ROUNDUP FOR KANSAS
NATIONAL WEATHER SERVICE GOODLAND KS
900 PM CST THU JAN 29 2015

NOTE:  "FAIR" INDICATES FEW OR NO CLOUDS BELOW 12,000 FEET WITH NO
SIGNIFICANT WEATHER AND/OR OBSTRUCTIONS TO VISIBILITY.

KSZ001>006-013>018-027>032-041>047-300400-
NORTHWEST KANSAS

CITY           SKY/WX    TMP DP  RH WIND       PRES   REMARKS
GOODLAND       CLEAR     26  20  77 S8        30.47R
HAYS           CLEAR     28  16  59 N3        30.51S
HILL CITY      PTCLDY    25  17  72 W3        30.51S
RUSSELL        CLEAR     32  22  66 CALM      30.50R
$$

KSZ061>065-074>080-084>089-300400-
SOUTHWEST KANSAS

CITY           SKY/WX    TMP DP  RH WIND       PRES   REMARKS
DODGE CITY     MOCLDY    25  17  72 NE8       30.50S
ELKHART          N/A     36  22  57 E7          N/A
GARDEN CITY    MOCLDY    34  20  56 NE7       30.49S
LIBERAL        CLOUDY    37  19  48 CALM      30.52S
$$

KSZ066>073-081>083-090>101-300400-
SOUTHEAST KANSAS

CITY           SKY/WX    TMP DP  RH WIND       PRES   REMARKS
CHANUTE        CLEAR     33  26  75 NW7       30.51R
COFFEYVILLE    CLEAR     34  26  72 N8        30.52R
HUTCHINSON     CLEAR     33  22  63 N3        30.52R
MEDICINE LODGE   N/A     31  23  72 N5        30.51R
NEWTON         CLEAR     32  19  59 N7        30.52S
PARSONS        CLEAR     35  27  72 N7        30.52R
WICHITA INTL   PTCLDY    36  23  59 N5        30.52R
WICHITA JABRA  CLEAR     35  24  64 N7        30.51R
WINFIELD       CLEAR     37  24  59 NE5       30.53R
$$

KSZ007>012-019>026-033>040-048>060-102>105-300400-
NORTHEAST KANSAS

CITY           SKY/WX    TMP DP  RH WIND       PRES   REMARKS
CONCORDIA      CLEAR     34  23  64 NW5       30.51S
EMPORIA        CLEAR     31  24  75 N5        30.51R
LAWRENCE       CLEAR     27  21  78 N3        30.53R
MANHATTAN      CLEAR     27  23  85 CALM      30.53R
OLATHE IND     CLEAR     31  24  75 NW7       30.52R
OLATHE EXE     CLEAR     34  24  67 N7        30.50R
SALINA         CLEAR     34  23  64 W5        30.52R
TOPEKA BILLARD CLEAR     29  23  78 CALM      30.53R
TOPEKA FORBES  CLEAR     33  24  69 N7        30.51S
$$



USA.gov is the U.S. government's official web portal to all federal, state and local government web resources and services.